Time,TemperatureF,DewpointF,PressureIn,WindDirection,WindDirectionDegrees,WindSpeedMPH,WindSpeedGustMPH,Humidity,HourlyPrecipIn,Conditions,Clouds,dailyrainin,SoftwareType,DateUTC
2013-01-30 00:04:00,34.0,12.0,29.36,WSW,242,3.0,10.0,40,0.01,,,1.24,,2013-01-30 05:04:00,
2013-01-30 00:12:00,34.0,12.0,29.36,WSW,242,3.0,10.0,40,0.01,,,1.24,,2013-01-30 05:12:00,
2013-01-30 00:22:00,34.0,12.0,29.36,WSW,242,3.0,10.0,40,0.01,,,1.24,,2013-01-30 05:22:00,
2013-01-30 00:32:00,34.0,12.0,29.33,WNW,299,1.0,3.0,40,0.01,,,1.24,,2013-01-30 05:32:00,
2013-01-30 00:43:00,34.0,12.0,29.33,WNW,299,1.0,3.0,40,0.01,,,1.24,,2013-01-30 05:43:00,
2013-01-30 00:52:00,34.0,12.0,29.33,WNW,299,1.0,3.0,40,0.01,,,1.24,,2013-01-30 05:52:00,
2013-01-30 01:02:00,34.0,12.0,29.34,West,275,2.0,5.0,40,0.01,,,1.25,,2013-01-30 06:02:00,
2013-01-30 01:11:00,34.0,12.0,29.34,West,275,2.0,5.0,40,0.01,,,1.25,,2013-01-30 06:11:00,
2013-01-30 01:22:00,34.0,12.0,29.34,West,275,2.0,5.0,40,0.01,,,1.25,,2013-01-30 06:22:00,
2013-01-30 01:32:00,34.0,12.0,29.34,West,279,1.0,3.0,40,0.04,,,1.28,,2013-01-30 06:32:00,
2013-01-30 01:42:00,34.0,12.0,29.34,West,279,1.0,3.0,40,0.04,,,1.28,,2013-01-30 06:42:00,
2013-01-30 01:52:00,34.0,12.0,29.34,West,279,1.0,3.0,40,0.04,,,1.28,,2013-01-30 06:52:00,
2013-01-30 02:02:00,34.0,12.0,29.34,West,279,1.0,3.0,40,0.04,,,1.28,,2013-01-30 07:02:00,
2013-01-30 02:11:00,34.0,12.0,29.34,West,279,1.0,3.0,40,0.04,,,1.28,,2013-01-30 07:11:00,
2013-01-30 02:32:00,34.0,12.0,29.30,West,278,0.0,0.0,40,0.12,,,1.40,,2013-01-30 07:32:00,
2013-01-30 02:42:00,34.0,12.0,29.30,West,278,0.0,0.0,40,0.12,,,1.40,,2013-01-30 07:42:00,
2013-01-30 02:52:00,34.0,12.0,29.30,West,278,0.0,0.0,40,0.12,,,1.40,,2013-01-30 07:52:00,
2013-01-30 03:02:00,34.0,12.0,29.30,West,278,0.0,0.0,40,0.12,,,1.40,,2013-01-30 08:02:00,
2013-01-30 03:11:00,34.0,12.0,29.30,West,278,0.0,0.0,40,0.12,,,1.40,,2013-01-30 08:11:00,
2013-01-30 03:32:00,34.0,12.0,29.27,West,278,0.0,1.0,40,0.06,,,1.40,,2013-01-30 08:32:00,
2013-01-30 03:42:00,34.0,12.0,29.27,West,278,0.0,1.0,40,0.06,,,1.40,,2013-01-30 08:42:00,
2013-01-30 03:52:00,34.0,12.0,29.27,West,278,0.0,1.0,40,0.06,,,1.40,,2013-01-30 08:52:00,
2013-01-30 04:02:00,34.0,12.0,29.26,West,278,0.0,1.0,40,0.04,,,1.37,,2013-01-30 09:02:00,
2013-01-30 04:11:00,34.0,12.0,29.26,West,278,0.0,1.0,40,0.04,,,1.37,,2013-01-30 09:11:00,
2013-01-30 04:22:00,34.0,12.0,29.26,West,278,0.0,1.0,40,0.04,,,1.37,,2013-01-30 09:22:00,
2013-01-30 04:32:00,34.0,12.0,29.26,West,278,0.0,0.0,40,0.06,,,1.23,,2013-01-30 09:32:00,
2013-01-30 04:42:00,34.0,12.0,29.26,West,278,0.0,0.0,40,0.06,,,1.23,,2013-01-30 09:42:00,
2013-01-30 04:52:00,34.0,12.0,29.26,West,278,0.0,0.0,40,0.06,,,1.23,,2013-01-30 09:52:00,
2013-01-30 05:02:00,34.0,12.0,29.29,West,263,1.0,6.0,40,0.06,,,1.23,,2013-01-30 10:02:00,
2013-01-30 05:11:00,34.0,12.0,29.29,West,263,1.0,6.0,40,0.06,,,1.23,,2013-01-30 10:11:00,
2013-01-30 05:22:00,34.0,12.0,29.29,West,263,1.0,6.0,40,0.06,,,1.23,,2013-01-30 10:22:00,
2013-01-30 05:32:00,34.0,12.0,29.28,West,260,1.0,6.0,40,0.05,,,1.23,,2013-01-30 10:32:00,
2013-01-30 05:42:00,34.0,12.0,29.28,West,260,1.0,6.0,40,0.05,,,1.23,,2013-01-30 10:42:00,
2013-01-30 05:52:00,34.0,12.0,29.28,West,260,1.0,6.0,40,0.05,,,1.23,,2013-01-30 10:52:00,
2013-01-30 06:02:00,34.0,12.0,29.28,WNW,299,1.0,3.0,40,0.02,,,0.98,,2013-01-30 11:02:00,
2013-01-30 06:11:00,34.0,12.0,29.28,WNW,299,1.0,3.0,40,0.02,,,0.98,,2013-01-30 11:11:00,
2013-01-30 06:22:00,34.0,12.0,29.28,WNW,299,1.0,3.0,40,0.02,,,0.98,,2013-01-30 11:22:00,
2013-01-30 06:33:00,34.0,12.0,29.23,WNW,299,0.0,0.0,40,0.00,,,0.86,,2013-01-30 11:33:00,
2013-01-30 06:42:00,34.0,12.0,29.23,WNW,299,0.0,0.0,40,0.00,,,0.86,,2013-01-30 11:42:00,
2013-01-30 06:52:00,34.0,12.0,29.23,WNW,299,0.0,0.0,40,0.00,,,0.86,,2013-01-30 11:52:00,
2013-01-30 07:02:00,34.0,12.0,29.25,ENE,78,2.0,3.0,40,0.00,,,0.85,,2013-01-30 12:02:00,
2013-01-30 07:12:00,34.0,12.0,29.25,ENE,78,2.0,3.0,40,0.00,,,0.85,,2013-01-30 12:12:00,
2013-01-30 07:22:00,34.0,12.0,29.25,ENE,78,2.0,3.0,40,0.00,,,0.85,,2013-01-30 12:22:00,
2013-01-30 07:33:00,34.0,12.0,29.27,West,281,1.0,5.0,40,0.00,,,0.84,,2013-01-30 12:33:00,
2013-01-30 07:43:00,34.0,12.0,29.27,West,281,1.0,5.0,40,0.00,,,0.84,,2013-01-30 12:43:00,
2013-01-30 08:03:00,34.0,12.0,29.21,WNW,298,0.0,1.0,40,0.01,,,0.85,,2013-01-30 13:03:00,
2013-01-30 08:13:00,34.0,12.0,29.21,WNW,298,0.0,1.0,40,0.01,,,0.85,,2013-01-30 13:13:00,
2013-01-30 08:23:00,34.0,12.0,29.21,WNW,298,0.0,1.0,40,0.01,,,0.85,,2013-01-30 13:23:00,
2013-01-30 08:33:00,34.0,12.0,29.24,North,354,6.0,12.0,40,0.02,,,0.86,,2013-01-30 13:33:00,
2013-01-30 08:43:00,34.0,12.0,29.24,North,354,6.0,12.0,40,0.02,,,0.86,,2013-01-30 13:43:00,
2013-01-30 08:53:00,34.0,12.0,29.24,North,354,6.0,12.0,40,0.02,,,0.86,,2013-01-30 13:53:00,
2013-01-30 09:03:00,34.0,12.0,29.24,NNW,345,3.0,7.0,40,0.02,,,0.87,,2013-01-30 14:03:00,
2013-01-30 09:12:00,34.0,12.0,29.24,NNW,345,3.0,7.0,40,0.02,,,0.87,,2013-01-30 14:12:00,
2013-01-30 09:23:00,34.0,12.0,29.24,NNW,345,3.0,7.0,40,0.02,,,0.87,,2013-01-30 14:23:00,
2013-01-30 09:33:00,34.0,12.0,29.25,North,355,2.0,7.0,40,0.02,,,0.88,,2013-01-30 14:33:00,
2013-01-30 09:42:00,34.0,12.0,29.25,North,355,2.0,7.0,40,0.02,,,0.88,,2013-01-30 14:42:00,
2013-01-30 09:53:00,34.0,12.0,29.25,North,355,2.0,7.0,40,0.02,,,0.88,,2013-01-30 14:53:00,
2013-01-30 10:03:00,34.0,12.0,29.23,NE,53,2.0,5.0,40,0.01,,,0.88,,2013-01-30 15:03:00,
2013-01-30 10:12:00,34.0,12.0,29.23,NE,53,2.0,5.0,40,0.01,,,0.88,,2013-01-30 15:12:00,
2013-01-30 10:23:00,34.0,12.0,29.23,NE,53,2.0,5.0,40,0.01,,,0.88,,2013-01-30 15:23:00,
2013-01-30 10:33:00,34.0,12.0,29.23,ENE,78,2.0,5.0,40,0.00,,,0.80,,2013-01-30 15:33:00,
2013-01-30 10:43:00,34.0,12.0,29.23,ENE,78,2.0,5.0,40,0.00,,,0.80,,2013-01-30 15:43:00,
2013-01-30 10:53:00,34.0,12.0,29.23,ENE,78,2.0,5.0,40,0.00,,,0.80,,2013-01-30 15:53:00,
2013-01-30 11:03:00,34.0,12.0,29.21,SE,128,2.0,6.0,40,0.01,,,0.81,,2013-01-30 16:03:00,
2013-01-30 11:12:00,34.0,12.0,29.21,SE,128,2.0,6.0,40,0.01,,,0.81,,2013-01-30 16:12:00,
2013-01-30 11:23:00,34.0,12.0,29.21,SE,128,2.0,6.0,40,0.01,,,0.81,,2013-01-30 16:23:00,
2013-01-30 11:32:00,34.0,12.0,29.20,East,96,2.0,7.0,40,0.01,,,0.79,,2013-01-30 16:32:00,
2013-01-30 11:42:00,34.0,12.0,29.20,East,96,2.0,7.0,40,0.01,,,0.79,,2013-01-30 16:42:00,
2013-01-30 11:52:00,34.0,12.0,29.20,East,96,2.0,7.0,40,0.01,,,0.79,,2013-01-30 16:52:00,
2013-01-30 12:02:00,34.0,12.0,29.21,SE,126,2.0,7.0,40,0.00,,,0.79,,2013-01-30 17:02:00,
2013-01-30 12:12:00,34.0,12.0,29.21,SE,126,2.0,7.0,40,0.00,,,0.79,,2013-01-30 17:12:00,
2013-01-30 12:23:00,34.0,12.0,29.21,SE,126,2.0,7.0,40,0.00,,,0.79,,2013-01-30 17:23:00,
2013-01-30 12:33:00,34.0,12.0,29.16,ESE,108,2.0,8.0,40,0.01,,,0.80,,2013-01-30 17:33:00,
2013-01-30 12:43:00,34.0,12.0,29.16,ESE,108,2.0,8.0,40,0.01,,,0.80,,2013-01-30 17:43:00,
2013-01-30 12:53:00,34.0,12.0,29.16,ESE,108,2.0,8.0,40,0.01,,,0.80,,2013-01-30 17:53:00,
2013-01-30 13:03:00,34.0,12.0,29.15,ESE,119,1.0,5.0,40,0.01,,,0.80,,2013-01-30 18:03:00,
2013-01-30 13:13:00,34.0,12.0,29.15,ESE,119,1.0,5.0,40,0.01,,,0.80,,2013-01-30 18:13:00,
2013-01-30 13:23:00,34.0,12.0,29.15,ESE,119,1.0,5.0,40,0.01,,,0.80,,2013-01-30 18:23:00,
2013-01-30 13:33:00,34.0,12.0,29.11,ESE,110,2.0,5.0,40,0.01,,,0.80,,2013-01-30 18:33:00,
2013-01-30 13:43:00,34.0,12.0,29.11,ESE,110,2.0,5.0,40,0.01,,,0.80,,2013-01-30 18:43:00,
2013-01-30 13:53:00,34.0,12.0,29.11,ESE,110,2.0,5.0,40,0.01,,,0.80,,2013-01-30 18:53:00,
2013-01-30 14:03:00,34.0,12.0,29.10,SE,127,0.0,5.0,40,0.02,,,0.81,,2013-01-30 19:03:00,
2013-01-30 14:12:00,34.0,12.0,29.10,SE,127,0.0,5.0,40,0.02,,,0.81,,2013-01-30 19:12:00,
2013-01-30 14:22:00,34.0,12.0,29.10,SE,127,0.0,5.0,40,0.02,,,0.81,,2013-01-30 19:22:00,
2013-01-30 14:33:00,34.0,12.0,29.08,South,177,1.0,7.0,40,0.01,,,0.81,,2013-01-30 19:33:00,
2013-01-30 14:43:00,34.0,12.0,29.08,South,177,1.0,7.0,40,0.01,,,0.81,,2013-01-30 19:43:00,
2013-01-30 14:53:00,34.0,12.0,29.08,South,177,1.0,7.0,40,0.01,,,0.81,,2013-01-30 19:53:00,
2013-01-30 15:03:00,34.0,12.0,29.08,SW,219,5.0,20.0,40,0.00,,,0.81,,2013-01-30 20:03:00,
2013-01-30 15:12:00,34.0,12.0,29.08,SW,219,5.0,20.0,40,0.00,,,0.81,,2013-01-30 20:12:00,
2013-01-30 15:22:00,34.0,12.0,29.08,SW,219,5.0,20.0,40,0.00,,,0.81,,2013-01-30 20:22:00,
2013-01-30 15:33:00,34.0,12.0,29.06,WSW,238,11.0,23.0,40,0.01,,,0.82,,2013-01-30 20:33:00,
2013-01-30 15:42:00,34.0,12.0,29.06,WSW,238,11.0,23.0,40,0.01,,,0.82,,2013-01-30 20:42:00,
2013-01-30 15:53:00,34.0,12.0,29.06,WSW,238,11.0,23.0,40,0.01,,,0.82,,2013-01-30 20:53:00,
2013-01-30 16:04:00,34.0,12.0,29.08,South,187,7.0,20.0,40,0.01,,,0.82,,2013-01-30 21:04:00,
2013-01-30 16:12:00,34.0,12.0,29.08,South,187,7.0,20.0,40,0.01,,,0.82,,2013-01-30 21:12:00,
2013-01-30 16:23:00,34.0,12.0,29.08,South,187,7.0,20.0,40,0.01,,,0.82,,2013-01-30 21:23:00,
2013-01-30 16:32:00,34.0,12.0,29.07,WSW,247,5.0,14.0,40,0.00,,,0.82,,2013-01-30 21:32:00,
2013-01-30 16:43:00,34.0,12.0,29.07,WSW,247,5.0,14.0,40,0.00,,,0.82,,2013-01-30 21:43:00,
2013-01-30 16:53:00,34.0,12.0,29.07,WSW,247,5.0,14.0,40,0.00,,,0.82,,2013-01-30 21:53:00,
2013-01-30 17:03:00,34.0,12.0,29.08,SW,233,3.0,8.0,40,0.00,,,0.82,,2013-01-30 22:03:00,
2013-01-30 17:12:00,34.0,12.0,29.08,SW,233,3.0,8.0,40,0.00,,,0.82,,2013-01-30 22:12:00,
2013-01-30 17:22:00,34.0,12.0,29.08,SW,233,3.0,8.0,40,0.00,,,0.82,,2013-01-30 22:22:00,
2013-01-30 17:32:00,34.0,12.0,29.08,West,280,7.0,13.0,40,0.00,,,0.82,,2013-01-30 22:32:00,
2013-01-30 17:42:00,34.0,12.0,29.08,West,280,7.0,13.0,40,0.00,,,0.82,,2013-01-30 22:42:00,
2013-01-30 17:53:00,34.0,12.0,29.08,West,280,7.0,13.0,40,0.00,,,0.82,,2013-01-30 22:53:00,
2013-01-30 18:02:00,34.0,12.0,29.11,WNW,285,5.0,10.0,40,0.00,,,0.68,,2013-01-30 23:02:00,
2013-01-30 18:12:00,34.0,12.0,29.11,WNW,285,5.0,10.0,40,0.00,,,0.68,,2013-01-30 23:12:00,
2013-01-30 18:22:00,34.0,12.0,29.11,WNW,285,5.0,10.0,40,0.00,,,0.68,,2013-01-30 23:22:00,
2013-01-30 18:33:00,34.0,12.0,29.12,NW,311,5.0,12.0,40,0.00,,,0.67,,2013-01-30 23:33:00,
2013-01-30 18:42:00,34.0,12.0,29.12,NW,311,5.0,12.0,40,0.00,,,0.67,,2013-01-30 23:42:00,
2013-01-30 18:52:00,34.0,12.0,29.12,NW,311,5.0,12.0,40,0.00,,,0.67,,2013-01-30 23:52:00,
2013-01-30 19:02:00,34.0,12.0,29.12,NW,311,5.0,12.0,40,0.00,,,0.67,,2013-01-31 00:02:00,
2013-01-30 19:11:00,34.0,12.0,29.12,NW,311,5.0,12.0,40,0.00,,,0.67,,2013-01-31 00:11:00,
2013-01-30 19:32:00,34.0,12.0,29.14,NW,323,5.0,14.0,40,0.00,,,0.58,,2013-01-31 00:32:00,
2013-01-30 19:43:00,34.0,12.0,29.14,NW,323,5.0,14.0,40,0.00,,,0.58,,2013-01-31 00:43:00,
2013-01-30 19:53:00,34.0,12.0,29.14,NW,323,5.0,14.0,40,0.00,,,0.58,,2013-01-31 00:53:00,
2013-01-30 20:02:00,34.0,12.0,29.16,NNW,329,9.0,16.0,40,0.00,,,0.58,,2013-01-31 01:02:00,
2013-01-30 20:12:00,34.0,12.0,29.16,NNW,329,9.0,16.0,40,0.00,,,0.58,,2013-01-31 01:12:00,
2013-01-30 20:22:00,34.0,12.0,29.16,NNW,329,9.0,16.0,40,0.00,,,0.58,,2013-01-31 01:22:00,
2013-01-30 20:32:00,34.0,12.0,29.18,NW,311,7.0,15.0,40,0.00,,,0.58,,2013-01-31 01:32:00,
2013-01-30 20:42:00,34.0,12.0,29.18,NW,311,7.0,15.0,40,0.00,,,0.58,,2013-01-31 01:42:00,
2013-01-30 20:53:00,34.0,12.0,29.18,NW,311,7.0,15.0,40,0.00,,,0.58,,2013-01-31 01:53:00,
2013-01-30 21:01:00,34.0,12.0,29.19,NNW,330,10.0,20.0,40,0.00,,,0.58,,2013-01-31 02:01:00,
2013-01-30 21:12:00,34.0,12.0,29.19,NNW,330,10.0,20.0,40,0.00,,,0.58,,2013-01-31 02:12:00,
2013-01-30 21:22:00,34.0,12.0,29.19,NNW,330,10.0,20.0,40,0.00,,,0.58,,2013-01-31 02:22:00,
2013-01-30 21:32:00,34.0,12.0,29.22,WNW,297,6.0,18.0,40,0.00,,,0.57,,2013-01-31 02:32:00,
2013-01-30 21:42:00,34.0,12.0,29.22,WNW,297,6.0,18.0,40,0.00,,,0.57,,2013-01-31 02:42:00,
2013-01-30 21:52:00,34.0,12.0,29.22,WNW,297,6.0,18.0,40,0.00,,,0.57,,2013-01-31 02:52:00,
2013-01-30 22:03:00,34.0,12.0,29.23,NW,326,7.0,24.0,40,0.00,,,0.47,,2013-01-31 03:03:00,
2013-01-30 22:11:00,34.0,12.0,29.23,NW,326,7.0,24.0,40,0.00,,,0.47,,2013-01-31 03:11:00,
2013-01-30 22:22:00,34.0,12.0,29.23,NW,326,7.0,24.0,40,0.00,,,0.47,,2013-01-31 03:22:00,
2013-01-30 22:32:00,34.0,12.0,29.23,NW,326,7.0,24.0,40,0.00,,,0.47,,2013-01-31 03:32:00,
2013-01-30 23:02:00,34.0,12.0,29.28,NW,325,6.0,17.0,40,0.00,,,0.41,,2013-01-31 04:02:00,
2013-01-30 23:11:00,34.0,12.0,29.28,NW,325,6.0,17.0,40,0.00,,,0.41,,2013-01-31 04:11:00,
2013-01-30 23:22:00,34.0,12.0,29.28,NW,325,6.0,17.0,40,0.00,,,0.41,,2013-01-31 04:22:00,
2013-01-30 23:32:00,34.0,12.0,29.28,NW,325,6.0,17.0,40,0.00,,,0.41,,2013-01-31 04:32:00,
2013-01-30 23:42:00,34.0,12.0,29.28,NW,325,6.0,17.0,40,0.00,,,0.41,,2013-01-31 04:42:00,